OpenBCM V2.0.3 (Linux)

Packet Radio Mailbox

IZ3LSV

[San Dona' di P. JN]

 Login: GUEST





  
LU1HVK > KEP      22.09.19 07:28l 250 Lines 12366 Bytes #999 (0) @ WW
BID : 32190_LU1HVK
Read: GUEST
Subj: TLE 22 09
Path: IZ3LSV<IR1UAW<I0OJJ<I3XTY<GB7COW<GB7YEW<N3HYM<IV3BVK<IK5FKA<LU9HGS<
      LU1HVK
Sent: 190922/0523Z 32190@LU1HVK.2594.CBA.ARG.SA LinBPQ6.0.18

>From lu1hvk%lu1hvk.2594.cba.arg.sa@i0ojj.ampr.org Sun Sep 22 07:26:13 2019
Received: from i0ojj.ampr.org by i0ojj.ampr.org (JNOS2.0k.3b2) with SMTP
	id AA27310 ; Sun, 22 Sep 2019 07:26:13 +0200
Message-Id: <32190_LU1HVK@i3xty.bbs>
>From: lu1hvk@lu1hvk.2594.cba.arg.sa
X-JNOS-User-Port: Telnet   (i3xty @ 44.134.32.240)  -> Sending message

                         _    _   _ _ _   ___     ___  __
                        | |  | | | / | | | \ \   / / |/ /
                        | |  | | | | | |_| |\ \ / /| ' /
                        | |__| |_| | |  _  | \ V / | . \
                        |_____\___/|_|_| |_|  \_/  |_|\_\

     BBS/NODO - CORDOBA (LEONES-FF87UH) - LU1HVK-4 NODO - LU1HVK-3 APRS

+----------------------------------------------------------------------------+
OSCAR 7
1  7530U 74089B   19264.52202458 -.00000027  00000-0  11388-3 0  9997
2  7530 101.7552 231.2468 0012113 162.3744 312.6494 12.53639837 52406
OSCAR 11 (UoSAT 2)
1 14781U 84021B   19264.49258436  .00000035  00000-0  10379-4 0  9991
2 14781  97.6070 284.7045 0008860  18.5728 341.5808 14.83106920912819
OSCAR 19 (LUSAT)
1 20442U 90005G   19264.84327496 -.00000007  00000-0  13924-4 0  9992
2 20442  98.6547 206.7116 0010867 225.6228 134.4066 14.32933053550002
EYESAT A
1 22825U 93061C   19264.02471875 -.00000005  00000-0  16166-4 0  9994
2 22825  98.9108 254.8461 0009510  84.8479 275.3788 14.30066628355437
ITAMSAT
1 22826U 93061D   19263.93445346 -.00000004 +00000-0 +16282-4 0  9996
2 22826 098.9048 254.7333 0010006 075.0222 285.2066 14.30400631355376
RADIO ROSTO
1 23439U 94085A   19263.61664267 -.00000052 +00000-0 -27629-3 0  9994
2 23439 064.8189 324.2384 0145435 094.9901 266.7642 11.27568195018488
JAS 2
1 24278U 96046B   19263.90286093 +.00000012 +00000-0 +49185-4 0  9990
2 24278 098.5518 044.5844 0350265 355.9471 003.8850 13.53093043140296
TECHSAT 1B
1 25397U 98043D   19264.42834615 -.00000010  00000-0  14819-4 0  9994
2 25397  98.6939 203.4476 0002286 105.5198 254.6233 14.23670719101350
ISS (ZARYA)
1 25544U 98067A   19265.03802041  .00000393  00000-0  14899-4 0  9991
2 25544  51.6435 240.9325 0007491  72.4139   7.6959 15.50098953190289
PCSAT
1 26931U 01043C   19264.23427897 -.00000032  00000-0  19369-4 0  9991
2 26931  67.0501 119.7151 0007439 270.9714  89.0535 14.30552775938492
SAUDISAT 1C
1 27607U 02058C   19263.88859977 -.00000054 +00000-0 +13330-4 0  9993
2 27607 064.5541 121.6008 0076759 238.2678 121.0928 14.75572135900807
CUTE-1
1 27844U 03031E   19263.99762688  .00000031  00000-0  33433-4 0  9992
2 27844  98.6854 270.8047 0010876 115.4394 244.7910 14.22195032841698
CUBESAT XI 4
1 27848U 03031J   19264.57964637  .00000021  00000-0  29516-4 0  9995
2 27848  98.6931 271.8979 0010660 124.4521 235.7665 14.21788190841628
MOZHAYETS 4
1 27939U 03042A   19264.80121198  .00000119  00000-0  29876-4 0  9998
2 27939  98.0545  38.8352 0013834 123.2830 236.9716 14.66803547854487
CUBESAT XI 5
1 28895U 05043F   19263.91621832 +.00000109 +00000-0 +29827-4 0  9999
2 28895 097.9728 043.4896 0017902 057.2036 303.0889 14.63691520741035
CUTE-1.7+APD II
1 32785U 08021C   19264.14523854  .00000147  00000-0  21448-4 0  9995
2 32785  97.5546 259.4266 0011951 314.9780  45.0467 14.88345296617736
DELFI C3
1 32789U 08021G   19264.36730170  .00000648  00000-0  47112-4 0  9996
2 32789  97.4558 311.1398 0012926 155.0366 205.1490 15.07113911621224
SEEDS
1 32791U 08021J   19264.54131638  .00000261  00000-0  31880-4 0  9999
2 32791  97.5310 265.8667 0011783 284.0792  75.9117 14.90870506618242
YUBELEINY
1 32953U 08025A   19264.85695531  .00000020  00000-0  75656-4 0  9996
2 32953  82.4982  85.5784 0018730 282.9251  76.9737 12.43091271514135
PRISM (HITOMI)
1 33493U 09002B   19264.79716448  .00000564  00000-0  54911-4 0  9990
2 33493  98.1199 189.3568 0014098 224.9907 135.0172 14.96730113579371
KKS-1 (KISEKI)
1 33499U 09002H   19264.82123767  .00000062  00000-0  17203-4 0  9992
2 33499  98.3442 106.5386 0007877 263.4403  96.5908 14.75462865573257
SWISSCUBE
1 35932U 09051B   19264.48191108  .00000097  00000-0  32902-4 0  9997
2 35932  98.5973  73.2821 0006728 229.3067 130.7546 14.56310116530574
BEESAT
1 35933U 09051C   19264.41048351  .00000073  00000-0  27486-4 0  9997
2 35933  98.5993  75.0072 0004776 243.2928 116.7780 14.56395949530679
ITUPSAT 1
1 35935U 09051E   19264.45412564  .00000056  00000-0  24079-4 0  9990
2 35935  98.6103  75.2830 0007092 242.0516 117.9963 14.55552353530425
XIWANG-1 (HOPE-1)
1 36122U 09072B   19263.75350160 -.00000044  00000-0 -56197-5 0  9993
2 36122 100.0761 261.7234 0007851 124.9966 235.1885 13.16350987469255
TISAT 1
1 36799U 10035E   19264.09803656  .00000248  00000-0  31111-4 0  9997
2 36799  98.1681  59.4521 0013317 132.5030 227.7314 14.91156885498830
JUGNU
1 37839U 11058B   19264.05364531  .00000302  00000-0  18999-4 0  9999
2 37839  19.9608 122.5512 0018892 287.3738 236.4113 14.12658792410616
SRMSAT
1 37841U 11058D   19263.17311413  .00000306  00000-0  23214-4 0  9995
2 37841  19.9711 186.6011 0012019 143.3565 359.5818 14.10639054409900
M-CUBED/EXP-1 PRIME
1 37855U 11061F   19263.90527258  .00000319  00000-0  24063-4 0  9998
2 37855 101.7123 207.8630 0173073 157.4275 203.4669 15.05583979430956
HORYU 2
1 38340U 12025D   19264.09367576  .00000100  00000-0  22589-4 0  9994
2 38340  98.3211 305.4778 0011604 177.1000 183.0277 14.75749428395080
STRAND 1
1 39090U 13009E   19263.63201845  .00000015  00000-0  20350-4 0  9994
2 39090  98.4802 107.9796 0009536  16.9405 343.2097 14.35097197343869
SOMP
1 39134U 13015E   19263.82578045  .00000825  00000-0  46732-4 0  9991
2 39134  64.8621  75.4231 0035702 288.7636  70.9619 15.20321381354907
BEESAT 3
1 39135U 13015F   19263.91555566 +.00000422 +00000-0 +30667-4 0  9998
2 39135 064.8676 094.7686 0033632 298.3403 061.4332 15.17600563354157
BEESAT 2
1 39136U 13015G   19264.51583154  .00000507  00000-0  35429-4 0  9995
2 39136  64.8681  96.9247 0025466 303.3615  56.5073 15.17021531354552
CUBEBUG 1
1 39153U 13018D   19264.85127323  .00000142  00000-0  25520-4 0  9992
2 39153  97.9806   2.4541 0015679 248.2833 111.6710 14.80595892345893
ZACUBE
1 39417U 13066B   19264.01540059  .00000147  00000-0  24663-4 0  9993
2 39417  97.5628 272.2171 0060495  84.9153 275.8962 14.81148479315004
TRITON 1
1 39427U 13066M   19264.48102699  .00000141  00000-0  30586-4 0  9994
2 39427  97.6871 236.0544 0112701 221.4903 137.7707 14.67879564312243
GOMX 1
1 39430U 13066Q   19264.79585637  .00000156  00000-0  37604-4 0  9993
2 39430  97.7552 215.1252 0150587 314.8881  44.0176 14.59286058310478
HUMSAT D
1 39433U 13066T   19264.09561415  .00000142  00000-0  19223-4 0  9999
2 39433  97.5450 307.7014 0030307 348.6178  11.4352 14.92250552317154
CUBEBUG 2
1 39440U 13066AA  19264.87193688  .00000146  00000-0  27072-4 0  9991
2 39440  97.6080 257.7160 0081256 134.9814 225.8021 14.75886212314015
FUNCUBE 1
1 39444U 13066AE  19263.96370513  .00000178  00000-0  28123-4 0  9991
2 39444  97.5602 274.2033 0059602  78.7187 282.0717 14.81974248313895
UWE-3
1 39446U 13066AG  19263.96859362  .00000135  00000-0  24393-4 0  9995
2 39446  97.5845 263.9843 0071447 111.9284 248.9543 14.78420947313198
SPROUT
1 39770U 14029E   19264.75644183  .00000607  00000-0  73143-4 0  9997
2 39770  97.8883   7.4551 0009394 128.3858 231.8187 14.87426439288964
UNISAT 6
1 40012U 14033C   19264.51004904  .00000121  00000-0  25265-4 0  9991
2 40012  97.7441 126.9760 0058898 150.6779 209.7757 14.74007366282653
DUCHIFAT 1
1 40021U 14033M   19264.79576301  .00000329  00000-0  39401-4 0  9993
2 40021  97.9231 189.7033 0014371  95.2416 265.0442 14.90683217285711
QB50P1
1 40025U 14033R   19264.79130059  .00000224  00000-0  29828-4 0  9999
2 40025  97.9030 184.3119 0013815 104.5403 255.7347 14.88983033285479
CHUBUSAT 1
1 40300U 14070C   19264.79513404  .00000379  00000-0  19411-4 0  9993
2 40300  97.3187 336.5419 0021241  80.3031  60.0603 15.22171645270480
NUDT-PHONESAT
1 40900U 15049B   19264.71962296  .00001405  00000-0  62613-4 0  9998
2 40900  97.4370 273.1340 0011776 205.6991 243.0771 15.23044776222121
ZDPS 2A
1 40901U 15049C   19264.74956381  .00000683  00000-0  37079-4 0  9995
2 40901  97.4615 269.2105 0011874 229.0287 247.5397 15.17834620221654
ZDPS 2B
1 40902U 15049D   19264.77987627  .00000747  00000-0  40361-4 0  9995
2 40902  97.4567 266.6602 0012127 225.9254 220.5772 15.17686129221630
XW-2A
1 40903U 15049E   19264.78465625  .00001285  00000-0  31983-4 0  9994
2 40903  97.3283 308.0518 0013897 154.5329 296.9909 15.42096364224903
KAITUO 1A
1 40904U 15049F   19264.82431804  .00000352  00000-0  22127-4 0  9996
2 40904  97.4701 265.2199 0013087 235.7850 247.6960 15.15432533221405
OBJECT G
1 40905U 15049G   19264.83942310 -.00000022  00000-0  23939-5 0  9995
2 40905  97.4748 262.6871 0014312 230.8815 248.8809 15.14341872221278
XW-2C
1 40906U 15049H   19264.87067340  .00000611  00000-0  35487-4 0  9994
2 40906  97.4706 265.3888 0013369 225.9615 253.0659 15.15754600221410
XW-2D
1 40907U 15049J   19264.69875875  .00000219  00000-0  14880-4 0  9993
2 40907  97.4685 264.8996 0012810 223.6506 224.9855 15.15945556221401
LILACSAT 2
1 40908U 15049K   19264.75920139  .00000044  00000-0  60568-5 0  9996
2 40908  97.4822 263.6859 0014551 231.8271 119.0321 15.13847999221181
XW-2F
1 40910U 15049M   19264.77108103  .00000495  00000-0  28072-4 0  9993
2 40910  97.4650 267.1116 0013568 215.1749 250.9348 15.17419077221438
XW-2B
1 40911U 15049N   19264.87317427  .00000628  00000-0  36222-4 0  9990
2 40911  97.4711 265.7377 0012541 223.8150 253.8690 15.15877083221325
KAITUO 1B
1 40912U 15049P   19264.78504455  .00000729  00000-0  37270-4 0  9996
2 40912  97.4508 270.9151 0014147 194.7984 250.3453 15.19746840221759
